Tracking 19564 objects as of 19-Mar-2019
HD Live streaming from Space Station
objects crossing your sky now

WEINA 1B

Track WEINA 1B now!
10-day predictions


NORAD ID: 43279
Int'l Code: 2018-034E
Perigee: 1,068.8 km
Apogee: 1,125.6 km
Inclination: 63.4 °
Period: 107.0 minutes
Semi major axis: 7468 km
RCS: Unknown
Launch date: April 10, 2018
Source: People's Republic of China (PRC)
Launch site: Jiuquan Satellite Launch Center, China (JSC)
aabbcc
Your satellite tracking list
Your tracking list is empty




NASA's NSSDC Master Catalog

Two Line Element Set (TLE):
1 43279U 18034E   19077.66916085  .00000438  00000-0  88983-3 0  9990
2 43279  63.4075  53.5400 0038021   6.8802 353.2720 13.45186721 46052
Source of the keplerian elements: AFSPC